Location: Stara Lesna
(49.1528°N, 20.2911°E)
Time: 09:33:45
(UTC+02:00)

Gbstr 26 Del rocket - Pass Details

Date: 13 July 2020
Orbit: 492 x 1264 km, 51.8° (Epoch: 05 August)

Event Time Altitude Azimuth Distance (km) Brightness Sun altitude
Rises 03:44:26 0° 291° (WNW) 2,717 6.1 -8.6°
Reaches altitude 10° 03:46:32 10° 286° (WNW) 1,890 5.3 -8.4°
Maximum altitude 03:50:40 51° 210° (SSW) 818 3.3 -7.9°
Drops below altitude 10° 03:55:41 10° 136° (SE) 2,279 6.0 -7.3°
Sets 03:58:26 0° 131° (SE) 3,342 6.9 -7.0°
